1520204400.85,8741,8.88,72184.3,-8.65,-37.69,-37.87,0,*61
1520204402.11,8742,8.88,72184.3,-8.65,-37.69,-37.75,0,*6F
1520204403.34,8743,8.88,72186.3,-8.65,-37.75,-37.87,0,*6E
1520204404.59,8744,8.88,72186.3,-8.67,-37.93,-37.93,0,*66
1520204405.84,8745,8.88,72184.3,-8.65,-37.93,-38.05,0,*65
1520204407.1,8746,8.88,72184.3,-8.67,-37.93,-37.93,0,*64
1520204408.33,8747,8.88,72186.0,-8.67,-37.87,-37.93,0,*60
1520204409.57,8748,8.88,72184.5,-8.65,-37.87,-37.87,0,*68
1520204410.8,8749,8.88,72182.0,-8.67,-37.87,-37.93,0,*6E
1520204412.1,8750,8.88,72184.0,-8.69,-37.81,-37.81,0,*6D
1520204413.3,8751,8.88,72186.3,-8.67,-37.75,-37.87,0,*6F
1520204414.51,8752,8.88,72190.3,-8.67,-37.75,-37.75,0,*61
1520204415.74,8753,8.88,72184.5,-8.67,-37.69,-37.87,0,*60
1520204416.97,8754,8.88,72184.0,-8.67,-37.69,-37.75,0,*6A
1520204418.18,8755,8.88,72186.3,-8.67,-37.75,-37.87,0,*6B
1520204419.43,8756,8.88,72184.5,-8.65,-37.69,-37.75,0,*6A
1520204420.66,8757,8.88,72186.8,-8.65,-37.57,-37.57,0,*66
1520204421.89,8758,8.88,72188.3,-8.67,-37.75,-37.93,0,*63
1520204423.17,8759,8.88,72186.0,-8.65,-37.93,-37.93,0,*68
1520204424.39,8760,8.88,72190.8,-8.67,-37.93,-38.05,0,*60
1520204425.59,8761,8.88,72186.8,-8.67,-38.05,-38.05,0,*61
1520204426.8,8762,8.88,72186.5,-8.67,-38.17,-38.17,0,*62
1520204428.03,8763,8.88,72186.5,-8.69,-38.17,-38.17,0,*6D
1520204429.32,8764,8.88,72188.3,-8.69,-37.93,-37.99,0,*60
1520204430.55,8765,8.88,72188.8,-8.67,-37.87,-37.93,0,*60
1520204431.8,8766,8.88,72184.5,-8.65,-37.93,-38.05,0,*64
1520204433.03,8767,8.88,72186.5,-8.67,-37.75,-37.81,0,*6C
1520204434.28,8768,8.88,72184.0,-8.67,-37.93,-37.93,0,*68
1520204435.49,8769,8.88,72184.8,-8.67,-37.57,-37.75,0,*69
1520204436.71,8770,8.88,72186.8,-8.67,-37.57,-37.69,0,*6C
1520204437.97,8771,8.88,72186.8,-8.69,-37.63,-37.75,0,*69
1520204439.18,8772,8.88,72190.3,-8.67,-37.75,-37.87,0,*6E
1520204440.42,8773,8.88,72186.3,-8.67,-37.81,-37.87,0,*64
1520204441.63,8774,8.88,72184.3,-8.67,-37.75,-37.87,0,*68
1520204442.86,8775,8.88,72186.8,-8.69,-37.45,-37.75,0,*69
1520204444.15,8776,8.88,72184.5,-8.69,-37.81,-37.81,0,*69
1520204445.44,8777,8.88,72186.5,-8.69,-37.93,-37.99,0,*62
1520204446.7,8778,8.88,72184.5,-8.69,-37.75,-37.81,0,*6C
1520204447.98,8779,8.88,72186.0,-8.69,-37.99,-37.93,0,*6C
1520204449.2,8780,8.88,72188.8,-8.67,-37.93,-38.05,0,*6E
1520204450.49,8781,8.88,72186.0,-8.69,-37.99,-37.99,0,*61
1520204451.72,8782,8.88,72184.3,-8.67,-37.57,-37.69,0,*61
1520204452.94,8783,8.88,72188.3,-8.67,-37.57,-37.69,0,*60
1520204454.2,8784,8.88,72186.0,-8.69,-37.75,-37.93,0,*6C
1520204455.42,8785,8.88,72186.3,-8.67,-37.57,-37.69,0,*66
1520204456.62,8786,8.88,72186.8,-8.67,-37.75,-37.75,0,*68
1520204457.85,8787,8.88,72190.0,-8.67,-37.51,-37.75,0,*6F
1520204459.14,8788,8.88,72182.5,-8.69,-37.63,-37.63,0,*68
1520204460.39,8789,8.88,72184.5,-8.67,-37.51,-37.69,0,*6C
1520204461.65,8790,8.88,72184.5,-8.65,-37.75,-37.93,0,*65
1520204462.9,8791,8.88,72184.3,-8.65,-37.69,-37.75,0,*61
1520204464.13,8792,8.88,72184.8,-8.67,-37.69,-37.75,0,*60
1520204465.41,8793,8.88,72186.3,-8.69,-37.99,-38.11,0,*6D
1520204466.61,8794,8.88,72184.0,-8.67,-37.57,-37.75,0,*6B
1520204467.91,8795,8.88,72188.3,-8.69,-37.81,-37.81,0,*64
1520204469.11,8796,8.88,72190.8,-8.67,-37.75,-37.87,0,*64
1520204470.32,8797,8.88,72184.8,-8.67,-37.75,-37.87,0,*65
1520204471.53,8798,8.88,72188.3,-8.67,-37.75,-37.87,0,*6A
1520204472.75,8799,8.88,72186.0,-8.67,-38.11,-38.05,0,*63
1520204473.98,8800,8.88,72188.3,-8.67,-38.05,-37.93,0,*69
1520204475.21,8801,8.88,72190.5,-8.67,-38.05,-38.11,0,*6D
1520204476.43,8802,8.88,72190.3,-8.67,-38.05,-38.11,0,*6E
1520204477.69,8803,8.88,72186.0,-8.69,-38.17,-38.29,0,*69
1520204478.95,8804,8.88,72186.8,-8.69,-38.35,-38.29,0,*6E
1520204480.24,8805,8.81,72184.5,-8.69,-37.99,-37.99,0,*62
1520204481.47,8806,8.88,72190.0,-8.67,-37.99,-38.05,0,*65
1520204482.72,8807,8.88,72188.0,-8.67,-38.11,-38.11,0,*6E
1520204483.95,8808,8.88,72186.3,-8.69,-38.17,-38.17,0,*6F
1520204485.21,8809,8.88,72186.5,-8.69,-38.29,-38.35,0,*63
1520204486.44,8810,8.88,72188.0,-8.69,-38.35,-38.35,0,*66
1520204487.71,8811,8.88,72190.8,-8.69,-38.29,-38.35,0,*6A
1520204488.94,8812,8.88,72190.3,-8.71,-38.17,-38.29,0,*60
1520204490.2,8813,8.88,72190.8,-8.73,-38.23,-38.35,0,*69
1520204491.41,8814,8.88,72188.0,-8.71,-38.43,-38.43,0,*6B
1520204492.64,8815,8.88,72190.8,-8.73,-38.43,-38.43,0,*68
1520204493.87,8816,8.88,72186.3,-8.73,-38.35,-38.43,0,*6A
1520204495.13,8817,8.88,72188.3,-8.73,-38.17,-38.23,0,*6D
1520204496.36,8818,8.88,72188.0,-8.73,-38.05,-38.05,0,*65
1520204497.59,8819,8.88,72190.8,-8.73,-38.17,-38.17,0,*64
1520204498.82,8820,8.88,72190.3,-8.73,-38.17,-38.17,0,*6E
1520204500.05,8821,8.88,72188.5,-8.73,-38.05,-38.17,0,*6C
1520204501.28,8822,8.88,72188.0,-8.73,-38.17,-38.17,0,*6C
1520204502.55,8823,8.88,72190.8,-8.73,-37.81,-37.87,0,*6B
1520204503.81,8824,8.88,72190.0,-8.73,-37.69,-37.87,0,*6A
1520204505.05,8825,8.88,72188.8,-8.73,-37.87,-37.87,0,*6B
1520204506.32,8826,8.88,72188.3,-8.73,-37.81,-37.87,0,*6E
1520204507.58,8827,8.88,72190.5,-8.73,-38.05,-37.99,0,*63
1520204508.81,8828,8.88,72184.8,-8.73,-38.17,-38.05,0,*65
1520204510.04,8829,8.88,72190.8,-8.73,-38.05,-38.05,0,*67
1520204511.26,8830,8.88,72188.0,-8.75,-37.99,-38.05,0,*63
1520204512.52,8831,8.88,72186.5,-8.75,-37.99,-37.99,0,*68
1520204513.75,8832,8.88,72188.8,-8.75,-37.99,-38.05,0,*61
1520204514.95,8833,8.88,72188.0,-8.75,-38.05,-38.17,0,*69
1520204516.16,8834,8.88,72186.5,-8.75,-38.05,-38.17,0,*6E
1520204517.36,8835,8.88,72184.3,-8.75,-38.05,-38.05,0,*6C
1520204518.56,8836,8.88,72186.3,-8.75,-38.05,-38.17,0,*6C
1520204519.82,8837,8.88,72190.5,-8.75,-38.23,-38.23,0,*6E
1520204521.05,8838,8.88,72188.0,-8.75,-38.17,-38.23,0,*66
1520204522.34,8839,8.88,72188.0,-8.77,-38.29,-38.29,0,*62
1520204523.63,8840,8.88,72190.5,-8.77,-38.23,-38.29,0,*66
1520204524.86,8841,8.88,72190.0,-8.77,-38.05,-38.05,0,*6D
1520204526.09,8842,8.88,72188.0,-8.77,-38.05,-38.05,0,*6E
1520204527.37,8843,8.88,72190.3,-8.77,-38.11,-38.11,0,*6F
1520204528.66,8844,8.81,72188.3,-8.77,-38.11,-38.23,0,*69
1520204529.95,8845,8.81,72186.5,-8.77,-38.23,-38.23,0,*69
1520204531.23,8846,8.88,72190.0,-8.77,-38.23,-38.11,0,*6B
1520204532.48,8847,8.88,72186.5,-8.77,-37.75,-37.93,0,*63
1520204533.77,8848,8.81,72184.8,-8.77,-37.93,-37.93,0,*64
1520204535.03,8849,8.88,72186.8,-8.77,-37.75,-37.93,0,*6D
1520204536.31,8850,8.88,72190.3,-8.81,-37.81,-38.11,0,*62
1520204537.6,8851,8.88,72190.5,-8.81,-37.93,-37.99,0,*6F
1520204538.87,8852,8.88,72192.3,-8.81,-37.99,-37.93,0,*6C
1520204540.13,8853,8.81,72188.5,-8.81,-38.11,-38.17,0,*61
1520204541.41,8854,8.88,72190.0,-8.81,-37.99,-37.99,0,*60
1520204542.67,8855,8.88,72188.5,-8.77,-37.69,-37.75,0,*65
1520204543.92,8856,8.88,72190.0,-8.75,-37.69,-37.69,0,*69
1520204545.16,8857,8.81,72186.5,-8.77,-37.75,-37.75,0,*6A
1520204546.42,8858,8.81,72190.3,-8.77,-37.69,-37.75,0,*68
1520204547.68,8859,8.88,72188.3,-8.77,-37.69,-37.75,0,*69
1520204548.92,8860,8.81,72188.5,-8.77,-37.75,-37.87,0,*63
1520204550.17,8861,8.88,72188.0,-8.81,-37.75,-37.93,0,*6E
1520204551.43,8862,8.88,72188.5,-8.75,-37.63,-37.81,0,*62
1520204552.69,8863,8.81,72188.3,-8.77,-37.69,-37.75,0,*60
1520204553.92,8864,8.81,72190.0,-8.81,-37.75,-37.75,0,*63
1520204555.17,8865,8.88,72192.3,-8.81,-37.39,-37.57,0,*6A
1520204556.44,8866,8.88,72188.0,-8.77,-37.33,-37.51,0,*6C
1520204557.7,8867,8.81,72184.5,-8.77,-37.51,-37.57,0,*6F
1520204558.93,8868,8.81,72188.3,-8.75,-37.45,-37.51,0,*61
1520204560.21,8869,8.88,72188.0,-8.77,-37.51,-37.69,0,*6C
1520204561.44,8870,8.88,72188.3,-8.75,-37.45,-37.51,0,*68
1520204562.67,8871,8.88,72188.0,-8.75,-37.33,-37.63,0,*69
1520204563.91,8872,8.81,72184.8,-8.77,-37.57,-37.57,0,*6D
1520204565.17,8873,8.88,72188.0,-8.75,-37.51,-37.51,0,*6E
1520204566.43,8874,8.81,72186.3,-8.77,-37.51,-37.57,0,*6D
1520204567.69,8875,8.88,72188.5,-8.77,-37.51,-37.57,0,*6C
1520204568.89,8876,8.81,72186.5,-8.75,-37.33,-37.45,0,*6A
1520204570.14,8877,8.88,72188.8,-8.77,-37.57,-37.69,0,*65
1520204571.39,8878,8.81,72184.5,-8.75,-37.51,-37.69,0,*6E
1520204572.64,8879,8.88,72188.8,-8.75,-37.69,-37.69,0,*64
1520204573.9,8880,8.81,72188.3,-8.73,-37.45,-37.63,0,*60
1520204575.16,8881,8.88,72190.3,-8.73,-37.45,-37.51,0,*60
1520204576.42,8882,8.88,72186.0,-8.75,-37.51,-37.51,0,*60
1520204577.71,8883,8.88,72190.8,-8.73,-37.51,-37.63,0,*66
1520204578.96,8884,8.88,72188.0,-8.75,-37.51,-37.69,0,*6D
1520204580.21,8885,8.88,72190.0,-8.75,-37.63,-37.69,0,*6D
1520204581.46,8886,8.88,72190.5,-8.75,-37.63,-37.69,0,*6E
1520204582.69,8887,8.88,72190.8,-8.75,-37.45,-37.63,0,*61
1520204583.93,8888,8.88,72190.3,-8.75,-37.33,-37.63,0,*6F
1520204585.13,8889,8.81,72184.3,-8.75,-37.33,-37.45,0,*6A
1520204586.38,8890,8.88,72188.5,-8.73,-37.45,-37.51,0,*60
1520204587.64,8891,8.88,72188.0,-8.73,-37.45,-37.51,0,*61
1520204588.93,8892,8.81,72184.5,-8.73,-37.51,-37.63,0,*66
1520204590.22,8893,8.81,72184.8,-8.73,-37.69,-37.81,0,*60
1520204591.45,8894,8.81,72186.5,-8.73,-37.87,-38.05,0,*64
1520204592.65,8895,8.81,72186.3,-8.75,-38.05,-38.05,0,*66
1520204593.91,8896,8.88,72190.3,-8.75,-37.99,-37.99,0,*65
1520204595.17,8897,8.88,72190.3,-8.75,-37.81,-37.99,0,*6D
1520204596.41,8898,8.88,72190.8,-8.75,-37.81,-37.87,0,*6D
1520204597.65,8899,8.88,72188.3,-8.77,-38.05,-38.05,0,*68
1520204598.88,8900,8.88,72188.0,-8.75,-37.69,-37.87,0,*6B
1520204600.14,8901,8.81,72184.0,-8.75,-37.69,-37.63,0,*60
1520204601.4,8902,8.81,72184.8,-8.75,-37.51,-37.63,0,*68
1520204602.66,8903,8.88,72188.5,-8.77,-37.75,-37.69,0,*67
1520204603.91,8904,8.88,72190.3,-8.75,-37.63,-37.81,0,*63
1520204605.17,8905,8.81,72186.8,-8.75,-37.63,-37.81,0,*62
1520204606.38,8906,8.88,72190.3,-8.75,-37.75,-37.87,0,*60
1520204607.65,8907,8.88,72188.0,-8.75,-37.81,-37.81,0,*6C
1520204608.86,8908,8.81,72190.0,-8.75,-37.87,-37.87,0,*63
1520204610.11,8909,8.88,72194.3,-8.75,-37.51,-37.69,0,*69
1520204611.37,8910,8.81,72190.0,-8.75,-37.51,-37.81,0,*67
1520204612.62,8911,8.81,72186.8,-8.75,-37.63,-37.69,0,*61
1520204613.87,8912,8.81,72186.3,-8.77,-37.57,-37.69,0,*67
1520204615.13,8913,8.81,72186.3,-8.75,-37.69,-37.51,0,*62
1520204616.35,8914,8.81,72184.8,-8.75,-37.87,-37.87,0,*6E
1520204617.58,8915,8.88,72186.8,-8.77,-37.75,-37.75,0,*6D
1520204618.84,8916,8.81,72186.8,-8.77,-37.51,-37.57,0,*68
1520204620.08,8917,8.81,72184.5,-8.75,-37.45,-37.63,0,*69
1520204621.34,8918,8.81,72186.5,-8.77,-37.69,-37.75,0,*6D
1520204622.58,8919,8.81,72186.8,-8.77,-37.75,-37.87,0,*6C
1520204623.81,8920,8.81,72188.5,-8.77,-37.75,-37.75,0,*6B
1520204625.06,8921,8.81,72186.5,-8.75,-37.63,-37.69,0,*62
1520204626.34,8922,8.81,72186.3,-8.73,-37.63,-37.69,0,*67
1520204627.58,8923,8.81,72186.3,-8.77,-37.87,-38.05,0,*6D
1520204628.85,8924,8.81,72188.0,-8.73,-37.81,-37.87,0,*6D
1520204630.1,8925,8.81,72186.5,-8.77,-37.93,-38.05,0,*6E
1520204631.32,8926,8.81,72190.5,-8.75,-37.87,-37.87,0,*6F
1520204632.55,8927,8.88,72190.0,-8.77,-38.05,-38.05,0,*6C
1520204633.79,8928,8.88,72190.0,-8.75,-37.81,-37.87,0,*67
1520204635.03,8929,8.88,72190.3,-8.77,-37.87,-37.87,0,*62
1520204636.28,8930,8.81,72184.3,-8.75,-37.69,-37.69,0,*68
1520204637.53,8931,8.81,72190.3,-8.75,-37.63,-37.69,0,*63
1520204638.79,8932,8.81,72188.8,-8.75,-37.51,-37.69,0,*61
1520204640.04,8933,8.81,72188.5,-8.75,-37.69,-37.81,0,*6D
1520204641.3,8934,8.81,72190.5,-8.77,-37.69,-37.75,0,*63
1520204642.54,8935,8.81,72184.8,-8.77,-37.75,-37.87,0,*62
1520204643.8,8936,8.81,72188.0,-8.77,-37.69,-37.75,0,*61
1520204645.09,8937,8.88,72194.3,-8.77,-37.69,-37.69,0,*6D
1520204646.34,8938,8.81,72190.0,-8.77,-37.57,-37.69,0,*6F
1520204647.6,8939,8.81,72184.8,-8.77,-37.51,-37.57,0,*65
1520204648.84,8940,8.81,72188.5,-8.77,-37.57,-37.57,0,*6D
1520204650.09,8941,8.81,72184.3,-8.77,-37.57,-37.69,0,*61
1520204651.35,8942,8.81,72184.3,-8.77,-37.57,-37.69,0,*62
1520204652.61,8943,8.88,72188.3,-8.77,-37.39,-37.57,0,*66
1520204653.87,8944,8.88,72188.8,-8.77,-37.39,-37.33,0,*63
1520204655.13,8945,8.81,72186.8,-8.77,-37.51,-37.57,0,*6E
1520204656.33,8946,8.81,72186.3,-8.75,-37.33,-37.45,0,*68
1520204657.53,8947,8.81,72188.0,-8.75,-37.27,-37.27,0,*68
1520204658.76,8948,8.81,72186.3,-8.77,-37.33,-37.33,0,*65
1520204660.02,8949,8.81,72186.5,-8.77,-37.39,-37.33,0,*6E
1520204661.21,8950,8.81,72184.3,-8.75,-37.33,-37.45,0,*6F
1520204662.48,8951,8.81,72184.3,-8.75,-37.51,-37.63,0,*6E
1520204663.71,8952,8.81,72186.0,-8.75,-37.45,-37.51,0,*69
1520204664.97,8953,8.81,72186.5,-8.75,-37.51,-37.63,0,*6C
1520204666.23,8954,8.81,72182.5,-8.75,-37.51,-37.63,0,*6B
1520204667.52,8955,8.81,72186.8,-8.77,-37.51,-37.51,0,*69
1520204668.75,8956,8.81,72186.5,-8.75,-37.45,-37.51,0,*6D
1520204670.0,8957,8.81,72186.8,-8.77,-37.57,-37.69,0,*66
1520204671.29,8958,8.81,72184.3,-8.73,-37.63,-37.63,0,*60
1520204672.55,8959,8.81,72186.0,-8.75,-37.51,-37.51,0,*67
1520204673.8,8960,8.81,72186.3,-8.77,-37.57,-37.69,0,*62
1520204675.03,8961,8.81,72188.5,-8.75,-37.45,-37.51,0,*69
1520204676.29,8962,8.81,72190.5,-8.75,-37.51,-37.63,0,*6E
1520204677.58,8963,8.81,72190.5,-8.77,-37.69,-37.69,0,*6C
1520204678.78,8964,8.81,72184.3,-8.71,-37.45,-37.57,0,*6E
1520204680.04,8965,8.81,72188.0,-8.73,-37.45,-37.51,0,*6B
1520204681.27,8966,8.81,72188.5,-8.75,-37.45,-37.51,0,*6E
1520204682.53,8967,8.81,72190.3,-8.75,-37.51,-37.63,0,*6B
1520204683.76,8968,8.81,72184.5,-8.75,-37.45,-37.63,0,*61
1520204685.01,8969,8.81,72184.3,-8.75,-37.63,-37.69,0,*6E
1520204686.27,8970,8.81,72186.8,-8.77,-37.51,-37.33,0,*6A
1520204687.56,8971,8.81,72186.8,-8.77,-37.39,-37.51,0,*61
1520204688.82,8972,8.88,72190.0,-8.75,-37.51,-37.63,0,*6F
1520204690.05,8973,8.81,72186.0,-8.75,-37.45,-37.51,0,*6A
1520204691.28,8974,8.88,72188.5,-8.75,-37.45,-37.51,0,*6D
1520204692.55,8975,8.88,72188.8,-8.77,-37.69,-37.87,0,*6B
1520204693.81,8976,8.81,72188.3,-8.75,-37.81,-37.81,0,*6A
1520204695.06,8977,8.81,72186.0,-8.75,-37.81,-37.87,0,*6D
1520204696.31,8978,8.81,72186.8,-8.75,-37.69,-37.81,0,*62
1520204697.57,8979,8.81,72190.0,-8.75,-37.69,-37.81,0,*63
1520204698.83,8980,8.81,72186.8,-8.75,-37.63,-37.81,0,*6F
1520204700.07,8981,8.81,72184.5,-8.77,-37.75,-37.87,0,*6D
1520204701.31,8982,8.81,72184.8,-8.77,-37.87,-37.87,0,*63
1520204702.55,8983,8.81,72184.3,-8.75,-37.87,-37.81,0,*66
1520204703.79,8984,8.81,72186.5,-8.75,-37.81,-37.87,0,*61
1520204705.04,8985,8.81,72186.0,-8.75,-37.69,-37.69,0,*66
1520204706.3,8986,8.81,72190.0,-8.75,-37.63,-37.81,0,*69
1520204707.56,8987,8.81,72186.8,-8.75,-37.69,-37.81,0,*62
1520204708.82,8988,8.81,72184.8,-8.77,-37.69,-37.75,0,*64
1520204710.08,8989,8.81,72184.5,-8.75,-37.69,-37.81,0,*6C
1520204711.34,8990,8.81,72190.8,-8.75,-37.81,-37.81,0,*62
1520204712.61,8991,8.81,72186.5,-8.73,-37.81,-37.87,0,*63
1520204713.87,8992,8.81,72190.5,-8.75,-37.69,-37.81,0,*66
1520204715.11,8993,8.81,72190.0,-8.77,-37.75,-37.87,0,*6E
1520204716.35,8994,8.81,72184.3,-8.77,-37.75,-37.87,0,*69
1520204717.61,8995,8.81,72190.5,-8.75,-37.81,-37.81,0,*67
1520204718.86,8996,8.81,72188.5,-8.75,-37.63,-37.69,0,*6E
1520204720.1,8997,8.81,72182.8,-8.77,-37.75,-37.87,0,*6A
1520204721.36,8998,8.81,72184.3,-8.77,-37.93,-38.05,0,*68
1520204722.62,8999,8.81,72188.5,-8.77,-38.05,-38.11,0,*6C
1520204723.87,9000,8.81,72186.3,-8.77,-38.11,-38.05,0,*64
1520204725.1,9001,8.81,72186.0,-8.77,-38.05,-38.05,0,*60
1520204726.37,9002,8.81,72192.0,-8.81,-38.11,-38.11,0,*6A
1520204727.65,9003,8.81,72184.3,-8.81,-37.99,-38.11,0,*64
1520204728.94,9004,8.81,72188.8,-8.81,-37.93,-37.99,0,*66
1520204730.22,9005,8.81,72184.8,-8.81,-37.93,-37.99,0,*67
1520204731.5,9006,8.81,72190.0,-8.81,-37.93,-37.93,0,*6E
1520204732.76,9007,8.81,72190.3,-8.77,-37.69,-37.87,0,*66
1520204734.03,9008,8.81,72190.3,-8.81,-37.81,-37.75,0,*6B
1520204735.31,9009,8.81,72186.8,-8.81,-37.93,-37.99,0,*6B
1520204736.59,9010,8.81,72190.8,-8.81,-37.93,-37.99,0,*63
1520204737.85,9011,8.81,72188.5,-8.81,-37.57,-37.81,0,*63
1520204739.08,9012,8.81,72188.5,-8.83,-37.57,-37.81,0,*62
1520204740.31,9013,8.81,72188.0,-8.83,-37.63,-37.75,0,*6F
1520204741.57,9014,8.81,72190.8,-8.83,-37.63,-37.81,0,*63
1520204742.83,9015,8.81,72188.8,-8.83,-37.81,-37.93,0,*6D
1520204744.11,9016,8.81,72188.3,-8.81,-37.93,-37.93,0,*6F
1520204745.37,9017,8.81,72186.5,-8.81,-37.57,-37.81,0,*65
1520204746.65,9018,8.81,72186.5,-8.81,-37.63,-37.93,0,*6E
1520204747.93,9019,8.81,72184.0,-8.81,-37.81,-37.93,0,*63
1520204749.22,9020,8.81,72186.3,-8.81,-37.99,-37.99,0,*6A
1520204750.47,9021,8.81,72188.0,-8.83,-37.93,-37.99,0,*63
1520204751.77,9022,8.81,72186.0,-8.81,-37.81,-37.99,0,*61
1520204753.03,9023,8.81,72184.0,-8.83,-37.81,-37.93,0,*68
1520204754.26,9024,8.81,72184.8,-8.83,-37.63,-37.75,0,*6B
1520204755.49,9025,8.81,72184.3,-8.83,-37.75,-37.81,0,*66
1520204756.74,9026,8.81,72186.3,-8.83,-37.93,-38.11,0,*6B
1520204758.0,9027,8.81,72190.3,-8.83,-37.93,-38.11,0,*6A
1520204759.22,9028,8.81,72188.5,-8.83,-37.75,-37.93,0,*68
1520204760.45,9029,8.81,72190.5,-8.83,-37.75,-37.93,0,*69
1520204761.71,9030,8.81,72188.0,-8.83,-37.81,-37.93,0,*6A
1520204762.97,9031,8.81,72184.8,-8.83,-37.81,-37.93,0,*6B
1520204764.23,9032,8.81,72184.3,-8.83,-37.99,-37.99,0,*6B
1520204765.5,9033,8.81,72188.0,-8.85,-37.81,-37.93,0,*6F
1520204766.72,9034,8.81,72188.0,-8.83,-37.75,-37.93,0,*65
1520204767.96,9035,8.81,72184.0,-8.83,-37.57,-37.63,0,*6B
1520204769.19,9036,8.81,72186.5,-8.83,-37.63,-37.75,0,*68
1520204770.43,9037,8.81,72188.5,-8.83,-37.57,-37.63,0,*69
1520204771.63,9038,8.81,72186.0,-8.83,-37.57,-37.75,0,*61
1520204772.89,9039,8.81,72186.5,-8.83,-37.81,-37.93,0,*63
1520204774.12,9040,8.81,72186.5,-8.83,-37.75,-37.81,0,*65
1520204775.35,9041,8.81,72186.8,-8.83,-37.63,-37.75,0,*68
1520204776.58,9042,8.81,72186.3,-8.83,-37.63,-37.75,0,*6B
1520204777.84,9043,8.81,72186.0,-8.83,-37.39,-37.63,0,*62
1520204779.05,9044,8.81,72188.0,-8.83,-37.45,-37.57,0,*69
1520204780.31,9045,8.81,72184.0,-8.83,-37.63,-37.81,0,*67
1520204781.54,9046,8.81,72186.0,-8.83,-37.63,-37.75,0,*6F
1520204782.8,9047,8.81,72186.0,-8.83,-37.81,-37.93,0,*6A
1520204784.06,9048,8.81,72190.0,-8.85,-37.81,-37.93,0,*63
1520204785.31,9049,8.81,72188.5,-8.81,-37.75,-37.93,0,*6D
1520204786.54,9050,8.81,72188.3,-8.83,-37.75,-37.93,0,*67
1520204787.77,9051,8.81,72188.0,-8.83,-37.75,-37.93,0,*66
1520204789.0,9052,8.81,72186.5,-8.83,-37.57,-37.63,0,*6A
1520204790.24,9053,8.81,72184.0,-8.83,-37.45,-37.63,0,*68
1520204791.47,9054,8.81,72190.3,-8.83,-37.57,-37.63,0,*6C
1520204792.73,9055,8.81,72186.5,-8.83,-37.63,-37.81,0,*66
1520204793.96,9056,8.81,72184.0,-8.81,-37.57,-37.75,0,*6B
1520204795.19,9057,8.81,72186.5,-8.83,-37.75,-37.93,0,*60
1520204796.44,9058,8.81,72184.5,-8.81,-37.75,-37.93,0,*6D
1520204797.7,9059,8.81,72184.3,-8.83,-37.63,-37.81,0,*6A
1520204798.98,9060,8.81,72186.8,-8.81,-37.81,-37.93,0,*6D
1520204800.24,9061,8.81,72186.0,-8.83,-37.93,-37.99,0,*67
1520204801.47,9062,8.81,72186.0,-8.83,-37.75,-37.93,0,*66
1520204802.73,9063,8.81,72186.3,-8.83,-37.93,-37.93,0,*6F
1520204803.98,9064,8.81,72186.5,-8.83,-37.93,-37.99,0,*62
1520204805.24,9065,8.81,72188.8,-8.83,-37.93,-37.99,0,*63
1520204806.5,9066,8.81,72184.8,-8.83,-37.93,-38.11,0,*6F
1520204807.76,9067,8.81,72188.0,-8.85,-37.81,-37.99,0,*64
1520204809.0,9068,8.81,72184.5,-8.83,-37.75,-37.81,0,*6F
1520204810.28,9069,8.81,72186.3,-8.87,-37.51,-37.81,0,*6C
1520204811.54,9070,8.81,72188.5,-8.85,-37.63,-37.81,0,*67
1520204812.8,9071,8.81,72190.3,-8.83,-37.81,-37.93,0,*6F
1520204814.06,9072,8.81,72190.0,-8.85,-37.63,-37.63,0,*69
1520204815.29,9073,8.81,72188.5,-8.85,-37.75,-37.93,0,*60
1520204816.52,9074,8.81,72184.8,-8.85,-37.75,-37.93,0,*67
1520204817.75,9075,8.81,72186.8,-8.85,-37.57,-37.81,0,*65
1520204818.95,9076,8.81,72188.0,-8.85,-37.57,-37.75,0,*6D
1520204820.22,9077,8.81,72190.3,-8.85,-37.81,-37.93,0,*6F
1520204821.42,9078,8.81,72184.0,-8.85,-37.57,-37.75,0,*63
1520204822.63,9079,8.81,72184.5,-8.85,-37.57,-37.75,0,*62
1520204823.86,9080,8.81,72186.3,-8.85,-37.75,-37.81,0,*6F
1520204825.11,9081,8.81,72184.8,-8.85,-37.93,-38.11,0,*60
1520204826.38,9082,8.81,72188.3,-8.85,-37.81,-37.99,0,*6F
1520204827.6,9083,8.81,72190.0,-8.87,-38.05,-38.05,0,*65
1520204828.83,9084,8.81,72188.5,-8.87,-38.05,-38.05,0,*62
1520204830.06,9085,8.81,72186.5,-8.87,-37.87,-38.05,0,*66
1520204831.29,9086,8.81,72186.3,-8.87,-37.87,-38.05,0,*65
1520204832.55,9087,8.81,72188.5,-8.87,-37.99,-38.05,0,*6B
1520204833.78,9088,8.81,72188.5,-8.87,-37.87,-38.05,0,*6B
1520204835.01,9089,8.81,72188.8,-8.87,-37.87,-38.05,0,*6A
1520204836.24,9090,8.81,72188.3,-8.87,-38.05,-38.17,0,*64
1520204837.48,9091,8.81,72186.5,-8.89,-38.17,-38.23,0,*6F
1520204838.68,9092,8.81,72186.8,-8.89,-38.17,-38.17,0,*6B
1520204839.91,9093,8.81,72188.3,-8.89,-37.99,-38.17,0,*63
1520204841.11,9094,8.81,72186.0,-8.89,-38.05,-38.17,0,*6E
1520204842.32,9095,8.81,72188.0,-8.89,-38.05,-38.35,0,*6F
1520204843.58,9096,8.81,72188.0,-8.89,-37.99,-38.23,0,*61
1520204844.83,9097,8.81,72190.0,-8.91,-38.05,-38.11,0,*62
1520204846.06,9098,8.81,72190.8,-8.89,-37.87,-37.99,0,*6E
1520204847.27,9099,8.81,72190.3,-8.89,-38.05,-38.17,0,*63
1520204848.54,9100,8.81,72190.8,-8.91,-38.11,-38.23,0,*69
1520204849.77,9101,8.81,72190.0,-8.89,-37.99,-38.05,0,*6A
1520204851.01,9102,8.81,72186.3,-8.89,-37.81,-37.87,0,*65
1520204852.26,9103,8.81,72188.3,-8.91,-38.05,-38.11,0,*6E
1520204853.53,9104,8.81,72186.5,-8.91,-38.11,-38.11,0,*6C
1520204854.78,9105,8.81,72186.8,-8.91,-38.05,-38.23,0,*69
1520204856.06,9106,8.81,72188.8,-8.91,-37.93,-38.11,0,*6B
1520204857.31,9107,8.81,72190.5,-8.91,-37.69,-37.87,0,*6F
1520204858.54,9108,8.81,72190.3,-8.91,-37.57,-37.87,0,*6D
1520204859.79,9109,8.81,72190.0,-8.91,-37.93,-38.05,0,*61
1520204861.06,9110,8.81,72188.0,-8.91,-38.11,-38.23,0,*68
1520204862.31,9111,8.81,72190.8,-8.91,-38.23,-38.43,0,*6E
1520204863.55,9112,8.81,72190.8,-8.93,-38.17,-38.49,0,*62
1520204864.78,9113,8.81,72188.5,-8.93,-38.17,-38.29,0,*65
1520204866.01,9114,8.81,72188.8,-8.93,-37.75,-37.99,0,*6D
1520204867.27,9115,8.81,72188.8,-8.93,-37.99,-38.11,0,*61
1520204868.55,9116,8.81,72190.5,-8.95,-37.99,-38.11,0,*64
1520204869.82,9117,8.81,72186.0,-8.91,-38.11,-38.23,0,*6F
1520204871.08,9118,8.81,72190.3,-8.95,-37.57,-37.81,0,*6E
1520204872.31,9119,8.81,72184.8,-8.93,-37.63,-37.75,0,*65
1520204873.57,9120,8.81,72186.5,-8.93,-37.81,-38.11,0,*6E
1520204874.82,9121,8.81,72190.8,-8.95,-37.93,-38.17,0,*6C
1520204876.11,9122,8.81,72188.8,-8.95,-37.99,-38.29,0,*68
1520204877.31,9123,8.81,72190.0,-8.93,-37.57,-37.75,0,*6B
1520204878.57,9124,8.81,72190.8,-8.95,-37.57,-37.81,0,*61
1520204879.8,9125,8.81,72190.8,-8.93,-37.63,-37.75,0,*6A
1520204881.08,9126,8.81,72188.0,-8.95,-37.63,-37.93,0,*67
1520204882.34,9127,8.81,72184.5,-8.93,-37.81,-38.11,0,*69
1520204883.62,9128,8.81,72188.5,-8.95,-37.93,-38.11,0,*63
1520204884.87,9129,8.81,72190.5,-8.93,-37.99,-38.11,0,*6E
1520204886.1,9130,8.81,72188.5,-8.93,-37.99,-38.17,0,*60
1520204887.35,9131,8.81,72190.0,-8.95,-38.11,-38.17,0,*68
1520204888.58,9132,8.81,72190.5,-8.95,-38.17,-38.17,0,*6D
1520204889.84,9133,8.81,72188.8,-8.93,-37.93,-37.99,0,*60
1520204891.11,9134,8.81,72190.3,-8.95,-38.11,-38.11,0,*6B
1520204892.37,9135,8.81,72190.5,-8.95,-38.17,-38.29,0,*67
1520204893.62,9136,8.81,72190.8,-8.95,-38.11,-38.17,0,*6F
1520204894.88,9137,8.81,72192.0,-8.97,-38.23,-38.23,0,*6A
1520204896.14,9138,8.81,72194.8,-8.97,-37.99,-38.23,0,*6B
1520204897.4,9139,8.81,72188.0,-8.97,-37.69,-37.99,0,*6B
1520204898.63,9140,8.81,72190.5,-8.97,-37.81,-38.05,0,*69
1520204899.87,9141,8.81,72194.0,-8.97,-37.81,-38.17,0,*6B
1520204901.1,9142,8.81,72192.0,-8.97,-38.17,-38.23,0,*6F
1520204902.36,9143,8.81,72192.3,-8.95,-37.75,-37.99,0,*69
1520204903.59,9144,8.81,72192.8,-8.95,-37.57,-37.75,0,*6C
1520204904.84,9145,8.81,72190.8,-8.97,-37.63,-37.81,0,*63
1520204906.14,9146,8.81,72192.3,-8.95,-37.81,-37.99,0,*67
1520204907.41,9147,8.81,72188.5,-8.95,-37.93,-38.11,0,*6A
1520204908.7,9148,8.81,72194.5,-8.95,-37.99,-37.99,0,*60
1520204909.93,9149,8.81,72192.0,-8.97,-37.99,-38.17,0,*6A
1520204911.13,9150,8.81,72190.8,-8.97,-37.87,-38.05,0,*6E
1520204912.39,9151,8.81,72190.0,-8.97,-37.99,-38.23,0,*64
1520204913.62,9152,8.81,72194.8,-8.97,-37.99,-38.17,0,*60
1520204914.86,9153,8.81,72192.3,-8.97,-37.81,-38.17,0,*68
1520204916.12,9154,8.81,72188.0,-8.99,-37.87,-37.99,0,*6E